sat.trackr.live / text

‹ back to catalog

STARLINK-3285

NORAD 50181 · 2021-125AB

PAYLOAD ACTIVE UNKNOWN

§ Identity

Operator
Country
US
Launch date
2021-12-18
Launch site
AFWTR
Launch vehicle
Mass (kg)
RCS (m²)

Purposes: comms

External: N2YO · Heavens-Above · Gunter

§ Orbital elements

Epoch: 2026-09-19T22:47:39.251904Z

Period
94.01 min
Inclination
53.1596°
Eccentricity
0.0001150
Mean motion
15.31693796 rev/d
Perigee alt
470.0 km
Apogee alt
471.5 km
Semi-major
6,848.9 km
B*
7.1098e-5
RAAN
84.4600°
Arg perigee
83.1712°
Mean anomaly
276.9421°
Rev number
26,610

§ Raw data

STARLINK-32851 50181U 21125AB  26262.94975986  .00001841  00000+0  71098-4 0  99932 50181  53.1596  84.4600 0001150  83.1712 276.9421 15.31693796266103

JSON: /api/v1/satellites/50181 · /tle

For live sub-satellite position, see the globe view (requires WebGL).

§ Visibility from observer

Set your observer location to see the next 7 days of passes ≥ 10°. The values pass through the URL so the page stays shareable.

No JS? Fill the form by hand. The geolocation button needs JavaScript.